Forside
METAR-TAF:

METAR-TAF

Lufthavne :

Newton Municipal Airport

Newton, Iowa, USA

Breddekreds: 41-41N, længdekreds: 093-01W, højde: 290 m

Aktuelle vejr

Denne rapport blev lavet for 22 minutter siden, kl. 12:15 UTC
Vind 5 kt fra østnordøst
Temperatur 5°C
Fugtighed 87%
Tryk 1027 hPa
Sigt: 16.1 km
skyfri

METAR: KTNU 111215Z AUTO 06005KT 10SM CLR 05/03 A3033 RMK A01

Tid: 07:37 (12:37 UTC)


TAF: fraværende

Vejrobservationer og prognoser fra mere end 4000 lufthavne (METAR og TAF).

De gule og røde prikker repræsenterer de meteorologiske stationer.

Flyt musen over at se navnet på stationen.

Så klik over at se vejr observationer og prognoser.

At skifte det kort: Klik på de grønne knapper med et sort kors for at zoome ind; på den grønne knap med en bindestreg for at zoome ud; eller på de grønne pile for tilstødende kort.


METAR-TAF: